This is the latest recevied weather packets stored in our database for station/object KD4EG. If no packets are shown the sender has not sent any weather packets the latest 1 day(s).
| Time | Temp. | Humidity | Pressure | Rain* | Wind** | Luminosity | Snow |
|---|---|---|---|---|---|---|---|
| 1778037411 | 17.22° C | 62% | 1014.3 hPa | 0 mm | 0.45 m/s, 322° | 0 W/m² | - |
| 1778037108 | 17.22° C | 62% | 1014.4 hPa | 0 mm | 0.45 m/s, 308° | 0 W/m² | - |
| 1778036807 | 17.22° C | 61% | 1014.6 hPa | 0 mm | 0.45 m/s, 301° | 0 W/m² | - |
| 1778036504 | 17.78° C | 61% | 1014.5 hPa | 0 mm | 0.45 m/s, 303° | 0 W/m² | - |
| 1778036200 | 17.78° C | 59% | 1014.6 hPa | 0 mm | 0.89 m/s, 314° | 0 W/m² | - |
| 1778035896 | 17.78° C | 60% | 1014.5 hPa | 0 mm | 0 m/s | 0 W/m² | - |
| 1778035594 | 17.78° C | 58% | 1014.5 hPa | 0 mm | 0.45 m/s, 333° | 0 W/m² | - |
| 1778035290 | 17.78° C | 59% | 1014.5 hPa | 0 mm | 0 m/s | 0 W/m² | - |
| 1778034987 | 18.33° C | 59% | 1014.6 hPa | 0 mm | 0 m/s | 0 W/m² | - |
| 1778034684 | 18.33° C | 59% | 1014.6 hPa | 0 mm | 0 m/s | 0 W/m² | - |
| 1778034381 | 18.33° C | 58% | 1014.5 hPa | 0 mm | 0.45 m/s, 333° | 0 W/m² | - |
| 1778034079 | 18.89° C | 56% | 1014.7 hPa | 0 mm | 0 m/s | 0 W/m² | - |
| 1778033776 | 18.89° C | 56% | 1014.6 hPa | 0 mm | 0 m/s | 0 W/m² | - |
| 1778033474 | 18.89° C | 54% | 1014.9 hPa | 0 mm | 0 m/s | 0 W/m² | - |
| 1778033170 | 18.89° C | 56% | 1014.9 hPa | 0 mm | 0.45 m/s, 274° | 0 W/m² | - |
| 1778032868 | 18.89° C | 56% | 1014.7 hPa | 0 mm | 0.45 m/s, 304° | 0 W/m² | - |
| 1778032565 | 18.89° C | 57% | 1014.9 hPa | 0 mm | 0 m/s | 0 W/m² | - |
| 1778032262 | 18.89° C | 56% | 1014.6 hPa | 0 mm | 0.45 m/s, 304° | 0 W/m² | - |
| 1778031960 | 18.89° C | 54% | 1014.6 hPa | 0 mm | 1.34 m/s, 71° | 0 W/m² | - |
| 1778031655 | 18.89° C | 57% | 1014.7 hPa | 0 mm | 0.45 m/s, 321° | 0 W/m² | - |
| 1778031354 | 19.44° C | 55% | 1014.6 hPa | 0 mm | 0.45 m/s, 308° | 0 W/m² | - |
| 1778031050 | 18.89° C | 54% | 1014.7 hPa | 0 mm | 0.45 m/s, 232° | 0 W/m² | - |
| 1778030746 | 18.89° C | 55% | 1014.7 hPa | 0 mm | 0.45 m/s, 306° | 0 W/m² | - |
| 1778030443 | 19.44° C | 54% | 1014.5 hPa | 0 mm | 0.45 m/s, 305° | 0 W/m² | - |
| 1778030141 | 20° C | 53% | 1014.5 hPa | 0 mm | 0 m/s | 0 W/m² | - |
* Rain latest hour (hover to see other rain measurements)
** Current wind speed in m/s (hover to see current wind gust speed)